Year,Month,Day,Hour,Minute,Value (Times are PST for temperature in C)
2014,07,25,00,00,14.20
2014,07,25,00,01,14.20
2014,07,25,00,02,14.10
2014,07,25,00,03,14.10
2014,07,25,00,04,14.10
2014,07,25,00,05,14.10
2014,07,25,00,06,14.10
2014,07,25,00,07,14.10
2014,07,25,00,08,14.10
2014,07,25,00,09,14.10
2014,07,25,00,10,14.10
2014,07,25,00,11,14.10
2014,07,25,00,12,14.10
2014,07,25,00,13,14.10
2014,07,25,00,14,14.10
2014,07,25,00,15,14.10
2014,07,25,00,16,14.10
2014,07,25,00,17,14.10
2014,07,25,00,18,14.10
2014,07,25,00,19,14.10
2014,07,25,00,20,14.10
2014,07,25,00,21,14.10
2014,07,25,00,22,14.10
2014,07,25,00,23,14.10
2014,07,25,00,24,14.10
2014,07,25,00,25,14.00
2014,07,25,00,26,14.10
2014,07,25,00,27,14.10
2014,07,25,00,28,14.10
2014,07,25,00,29,14.10
2014,07,25,00,30,14.10
2014,07,25,00,31,14.10
2014,07,25,00,32,14.10
2014,07,25,00,33,14.10
2014,07,25,00,34,14.10
2014,07,25,00,35,14.10
2014,07,25,00,36,14.10
2014,07,25,00,37,14.10
2014,07,25,00,38,14.10
2014,07,25,00,39,14.20
2014,07,25,00,40,14.20
2014,07,25,00,41,14.20
2014,07,25,00,42,14.20
2014,07,25,00,43,14.20
2014,07,25,00,44,14.20
2014,07,25,00,45,14.20
2014,07,25,00,46,14.10
2014,07,25,00,47,14.10
2014,07,25,00,48,14.10
2014,07,25,00,49,14.10
2014,07,25,00,50,14.10
2014,07,25,00,51,14.10
2014,07,25,00,52,14.10
2014,07,25,00,53,14.00
2014,07,25,00,54,14.00
2014,07,25,00,55,14.00
2014,07,25,00,56,14.00
2014,07,25,00,57,14.00
2014,07,25,00,58,13.90
2014,07,25,00,59,13.90
2014,07,25,01,00,13.90
2014,07,25,01,01,13.90
2014,07,25,01,02,13.90
2014,07,25,01,03,13.90
2014,07,25,01,04,13.90
2014,07,25,01,05,13.90
2014,07,25,01,06,13.90
2014,07,25,01,07,13.80
2014,07,25,01,08,13.80
2014,07,25,01,09,13.80
2014,07,25,01,10,13.80
2014,07,25,01,11,13.80
2014,07,25,01,12,13.80
2014,07,25,01,13,13.80
2014,07,25,01,14,13.70
2014,07,25,01,15,13.70
2014,07,25,01,16,13.70
2014,07,25,01,17,13.70
2014,07,25,01,18,13.70
2014,07,25,01,19,13.70
2014,07,25,01,20,13.60
2014,07,25,01,21,13.60
2014,07,25,01,22,13.60
2014,07,25,01,23,13.60
2014,07,25,01,24,13.60
2014,07,25,01,25,13.60
2014,07,25,01,26,13.60
2014,07,25,01,27,13.50
2014,07,25,01,28,13.50
2014,07,25,01,29,13.50
2014,07,25,01,30,13.50
2014,07,25,01,31,13.50
2014,07,25,01,32,13.50
2014,07,25,01,33,13.50
2014,07,25,01,34,13.50
2014,07,25,01,35,13.50
2014,07,25,01,36,13.50
2014,07,25,01,37,13.50
2014,07,25,01,38,13.50
2014,07,25,01,39,13.50
2014,07,25,01,40,13.50
2014,07,25,01,41,13.50
2014,07,25,01,42,13.50
2014,07,25,01,43,13.50
2014,07,25,01,44,13.50
2014,07,25,01,45,13.50
2014,07,25,01,46,13.50
2014,07,25,01,47,13.60
2014,07,25,01,48,13.60
2014,07,25,01,49,13.60
2014,07,25,01,50,13.60
2014,07,25,01,51,13.60
2014,07,25,01,52,13.60
2014,07,25,01,53,13.50
2014,07,25,01,54,13.50
2014,07,25,01,55,13.50
2014,07,25,01,56,13.50
2014,07,25,01,57,13.50
2014,07,25,01,58,13.50
2014,07,25,01,59,13.50
2014,07,25,02,00,13.50
2014,07,25,02,01,13.50
2014,07,25,02,02,13.50
2014,07,25,02,03,13.50
2014,07,25,02,04,13.50
2014,07,25,02,05,13.50
2014,07,25,02,06,13.50
2014,07,25,02,07,13.50
2014,07,25,02,08,13.50
2014,07,25,02,09,13.50
2014,07,25,02,10,13.50
2014,07,25,02,11,13.50
2014,07,25,02,12,13.50
2014,07,25,02,13,13.50
2014,07,25,02,14,13.40
2014,07,25,02,15,13.40
2014,07,25,02,16,13.40
2014,07,25,02,17,13.40
2014,07,25,02,18,13.40
2014,07,25,02,19,13.40
2014,07,25,02,20,13.40
2014,07,25,02,21,13.40
2014,07,25,02,22,13.40
2014,07,25,02,23,13.30
2014,07,25,02,24,13.30
2014,07,25,02,25,13.30
2014,07,25,02,26,13.30
2014,07,25,02,27,13.30
2014,07,25,02,28,13.20
2014,07,25,02,29,13.20
2014,07,25,02,30,13.20
2014,07,25,02,31,13.10
2014,07,25,02,32,13.10
2014,07,25,02,33,13.10
2014,07,25,02,34,13.00
2014,07,25,02,35,13.00
2014,07,25,02,36,12.90
2014,07,25,02,37,12.90
2014,07,25,02,38,12.80
2014,07,25,02,39,12.80
2014,07,25,02,40,12.80
2014,07,25,02,41,12.80
2014,07,25,02,42,12.80
2014,07,25,02,43,12.80
2014,07,25,02,44,12.80
2014,07,25,02,45,12.70
2014,07,25,02,46,12.70
2014,07,25,02,47,12.70
2014,07,25,02,48,12.70
2014,07,25,02,49,12.60
2014,07,25,02,50,12.60
2014,07,25,02,51,12.60
2014,07,25,02,52,12.60
2014,07,25,02,53,12.50
2014,07,25,02,54,12.50
2014,07,25,02,55,12.50
2014,07,25,02,56,12.40
2014,07,25,02,57,12.40
2014,07,25,02,58,12.40
2014,07,25,02,59,12.40
2014,07,25,03,00,12.40
2014,07,25,03,01,12.40
2014,07,25,03,02,12.40
2014,07,25,03,03,12.30
2014,07,25,03,04,12.30
2014,07,25,03,05,12.30
2014,07,25,03,06,12.30
2014,07,25,03,07,12.30
2014,07,25,03,08,12.30
2014,07,25,03,09,12.20
2014,07,25,03,10,12.20
2014,07,25,03,11,12.20
2014,07,25,03,12,12.20
2014,07,25,03,13,12.20
2014,07,25,03,14,12.20
2014,07,25,03,15,12.20
2014,07,25,03,16,12.20
2014,07,25,03,17,12.20
2014,07,25,03,18,12.20
2014,07,25,03,19,12.20
2014,07,25,03,20,12.10
2014,07,25,03,21,12.10
2014,07,25,03,22,12.10
2014,07,25,03,23,12.10
2014,07,25,03,24,12.00
2014,07,25,03,25,12.00
2014,07,25,03,26,12.00
2014,07,25,03,27,11.90
2014,07,25,03,28,11.90
2014,07,25,03,29,11.90
2014,07,25,03,30,11.80
2014,07,25,03,31,11.80
2014,07,25,03,32,11.80
2014,07,25,03,33,11.80
2014,07,25,03,34,11.80
2014,07,25,03,35,11.70
2014,07,25,03,36,11.70
2014,07,25,03,37,11.70
2014,07,25,03,38,11.70
2014,07,25,03,39,11.70
2014,07,25,03,40,11.70
2014,07,25,03,41,11.60
2014,07,25,03,42,11.60
2014,07,25,03,43,11.60
2014,07,25,03,44,11.60
2014,07,25,03,45,11.50
2014,07,25,03,46,11.50
2014,07,25,03,47,11.50
2014,07,25,03,48,11.40
2014,07,25,03,49,11.40
2014,07,25,03,50,11.30
2014,07,25,03,51,11.30
2014,07,25,03,52,11.30
2014,07,25,03,53,11.30
2014,07,25,03,54,11.30
2014,07,25,03,55,11.30
2014,07,25,03,56,11.30
2014,07,25,03,57,11.30
2014,07,25,03,58,11.30
2014,07,25,03,59,11.20
2014,07,25,04,00,11.20
2014,07,25,04,01,11.20
2014,07,25,04,02,11.10
2014,07,25,04,03,11.10
2014,07,25,04,04,11.00
2014,07,25,04,05,11.00
2014,07,25,04,06,10.90
2014,07,25,04,07,10.90
2014,07,25,04,08,10.80
2014,07,25,04,09,10.80
2014,07,25,04,10,10.80
2014,07,25,04,11,10.80
2014,07,25,04,12,10.70
2014,07,25,04,13,10.70
2014,07,25,04,14,10.70
2014,07,25,04,15,10.60
2014,07,25,04,16,10.60
2014,07,25,04,17,10.60
2014,07,25,04,18,10.60
2014,07,25,04,19,10.50
2014,07,25,04,20,10.50
2014,07,25,04,21,10.40
2014,07,25,04,22,10.40
2014,07,25,04,23,10.30
2014,07,25,04,24,10.30
2014,07,25,04,25,10.30
2014,07,25,04,26,10.20
2014,07,25,04,27,10.20
2014,07,25,04,28,10.20
2014,07,25,04,29,10.10
2014,07,25,04,30,10.10
2014,07,25,04,31,10.10
2014,07,25,04,32,10.20
2014,07,25,04,33,10.20
2014,07,25,04,34,10.20
2014,07,25,04,35,10.30
2014,07,25,04,36,10.30
2014,07,25,04,37,10.30
2014,07,25,04,38,10.40
2014,07,25,04,39,10.40
2014,07,25,04,40,10.40
2014,07,25,04,41,10.50
2014,07,25,04,42,10.50
2014,07,25,04,43,10.50
2014,07,25,04,44,10.60
2014,07,25,04,45,10.60
2014,07,25,04,46,10.60
2014,07,25,04,47,10.70
2014,07,25,04,48,10.70
2014,07,25,04,49,10.70
2014,07,25,04,50,10.70
2014,07,25,04,51,10.70
2014,07,25,04,52,10.70
2014,07,25,04,53,10.70
2014,07,25,04,54,10.70
2014,07,25,04,55,10.80
2014,07,25,04,56,10.80
2014,07,25,04,57,10.80
2014,07,25,04,58,10.80
2014,07,25,04,59,10.80
2014,07,25,05,00,10.80
2014,07,25,05,01,10.80
2014,07,25,05,02,10.80
2014,07,25,05,03,10.80
2014,07,25,05,04,10.80
2014,07,25,05,05,10.80
2014,07,25,05,06,10.80
2014,07,25,05,07,10.80
2014,07,25,05,08,10.80
2014,07,25,05,09,10.80
2014,07,25,05,10,10.90
2014,07,25,05,11,10.90
2014,07,25,05,12,10.90
2014,07,25,05,13,10.90
2014,07,25,05,14,10.90
2014,07,25,05,15,10.90
2014,07,25,05,16,10.90
2014,07,25,05,17,10.90
2014,07,25,05,18,11.00
2014,07,25,05,19,11.00
2014,07,25,05,20,11.00
2014,07,25,05,21,11.00
2014,07,25,05,22,11.00
2014,07,25,05,23,11.00
2014,07,25,05,24,11.00
2014,07,25,05,25,11.00
2014,07,25,05,26,11.00
2014,07,25,05,27,11.00
2014,07,25,05,28,11.00
2014,07,25,05,29,11.00
2014,07,25,05,30,11.00
2014,07,25,05,31,11.00
2014,07,25,05,32,11.00
2014,07,25,05,33,10.90
2014,07,25,05,34,10.90
2014,07,25,05,35,10.90
2014,07,25,05,36,10.90
2014,07,25,05,37,10.90
2014,07,25,05,38,10.90
2014,07,25,05,39,10.90
2014,07,25,05,40,10.90
2014,07,25,05,41,10.90
2014,07,25,05,42,10.80
2014,07,25,05,43,10.80
2014,07,25,05,44,10.80
2014,07,25,05,45,10.70
2014,07,25,05,46,10.70
2014,07,25,05,47,10.70
2014,07,25,05,48,10.70
2014,07,25,05,49,10.70
2014,07,25,05,50,10.70
2014,07,25,05,51,10.70
2014,07,25,05,52,10.70
2014,07,25,05,53,10.70
2014,07,25,05,54,10.60
2014,07,25,05,55,10.60
2014,07,25,05,56,10.60
2014,07,25,05,57,10.60
2014,07,25,05,58,10.60
2014,07,25,05,59,10.60
2014,07,25,06,00,10.60
2014,07,25,06,01,10.60
2014,07,25,06,02,10.60
2014,07,25,06,03,10.60
2014,07,25,06,04,10.60
2014,07,25,06,05,10.60
2014,07,25,06,06,10.60
2014,07,25,06,07,10.70
2014,07,25,06,08,10.70
2014,07,25,06,09,10.70
2014,07,25,06,10,10.70
2014,07,25,06,11,10.80
2014,07,25,06,12,10.80
2014,07,25,06,13,10.80
2014,07,25,06,14,10.80
2014,07,25,06,15,10.90
2014,07,25,06,16,10.90
2014,07,25,06,17,10.90
2014,07,25,06,18,11.00
2014,07,25,06,19,11.00
2014,07,25,06,20,11.10
2014,07,25,06,21,11.10
2014,07,25,06,22,11.20
2014,07,25,06,23,11.30
2014,07,25,06,24,11.30
2014,07,25,06,25,11.40
2014,07,25,06,26,11.50
2014,07,25,06,27,11.50
2014,07,25,06,28,11.60
2014,07,25,06,29,11.70
2014,07,25,06,30,11.70
2014,07,25,06,31,11.80
2014,07,25,06,32,11.90
2014,07,25,06,33,12.00
2014,07,25,06,34,12.10
2014,07,25,06,35,12.10
2014,07,25,06,36,12.20
2014,07,25,06,37,12.20
2014,07,25,06,38,12.30
2014,07,25,06,39,12.40
2014,07,25,06,40,12.40
2014,07,25,06,41,12.50
2014,07,25,06,42,12.60
2014,07,25,06,43,12.60
2014,07,25,06,44,12.70
2014,07,25,06,45,12.70
2014,07,25,06,46,12.80
2014,07,25,06,47,12.80
2014,07,25,06,48,12.90
2014,07,25,06,49,12.90
2014,07,25,06,50,13.00
2014,07,25,06,51,13.00
2014,07,25,06,52,13.10
2014,07,25,06,53,13.10
2014,07,25,06,54,13.20
2014,07,25,06,55,13.20
2014,07,25,06,56,13.30
2014,07,25,06,57,13.30
2014,07,25,06,58,13.40
2014,07,25,06,59,13.50
2014,07,25,07,00,13.60
2014,07,25,07,01,13.70
2014,07,25,07,02,13.70
2014,07,25,07,03,13.80
2014,07,25,07,04,13.90
2014,07,25,07,05,13.90
2014,07,25,07,06,13.90
2014,07,25,07,07,14.00
2014,07,25,07,08,14.00
2014,07,25,07,09,14.00
2014,07,25,07,10,14.10
2014,07,25,07,11,14.10
2014,07,25,07,12,14.10
2014,07,25,07,13,14.10
2014,07,25,07,14,14.10
2014,07,25,07,15,14.20
2014,07,25,07,16,14.20
2014,07,25,07,17,14.20
2014,07,25,07,18,14.20
2014,07,25,07,19,14.20
2014,07,25,07,20,14.20
2014,07,25,07,21,14.20
2014,07,25,07,22,14.20
2014,07,25,07,23,14.20
2014,07,25,07,24,14.20
2014,07,25,07,25,14.20
2014,07,25,07,26,14.20
2014,07,25,07,27,14.20
2014,07,25,07,28,14.20
2014,07,25,07,29,14.20
2014,07,25,07,30,14.20
2014,07,25,07,31,14.30
2014,07,25,07,32,14.30
2014,07,25,07,33,14.30
2014,07,25,07,34,14.30
2014,07,25,07,35,14.40
2014,07,25,07,36,14.40
2014,07,25,07,37,14.50
2014,07,25,07,38,14.50
2014,07,25,07,39,14.60
2014,07,25,07,40,14.70
2014,07,25,07,41,14.80
2014,07,25,07,42,14.80
2014,07,25,07,43,14.90
2014,07,25,07,44,14.90
2014,07,25,07,45,15.00
2014,07,25,07,46,15.10
2014,07,25,07,47,15.20
2014,07,25,07,48,15.20
2014,07,25,07,49,15.30
2014,07,25,07,50,15.30
2014,07,25,07,51,15.40
2014,07,25,07,52,15.40
2014,07,25,07,53,15.40
2014,07,25,07,54,15.40
2014,07,25,07,55,15.50
2014,07,25,07,56,15.50
2014,07,25,07,57,15.50
2014,07,25,07,58,15.60
2014,07,25,07,59,15.60
2014,07,25,08,00,15.70
2014,07,25,08,01,15.70
2014,07,25,08,02,15.70
2014,07,25,08,03,15.80
2014,07,25,08,04,15.80
2014,07,25,08,05,15.80
2014,07,25,08,06,15.90
2014,07,25,08,07,15.90
2014,07,25,08,08,16.00
2014,07,25,08,09,16.00
2014,07,25,08,10,16.10
2014,07,25,08,11,16.10
2014,07,25,08,12,16.10
2014,07,25,08,13,16.20
2014,07,25,08,14,16.20
2014,07,25,08,15,16.20
2014,07,25,08,16,16.20
2014,07,25,08,17,16.20
2014,07,25,08,18,16.20
2014,07,25,08,19,16.20
2014,07,25,08,20,16.30
2014,07,25,08,21,16.30
2014,07,25,08,22,16.30
2014,07,25,08,23,16.30
2014,07,25,08,24,16.30
2014,07,25,08,25,16.30
2014,07,25,08,26,16.30
2014,07,25,08,27,16.30
2014,07,25,08,28,16.30
2014,07,25,08,29,16.30
2014,07,25,08,30,16.40
2014,07,25,08,31,16.40
2014,07,25,08,32,16.40
2014,07,25,08,33,16.40
2014,07,25,08,34,16.40
2014,07,25,08,35,16.50
2014,07,25,08,36,16.50
2014,07,25,08,37,16.50
2014,07,25,08,38,16.60
2014,07,25,08,39,16.60
2014,07,25,08,40,16.60
2014,07,25,08,41,16.70
2014,07,25,08,42,16.70
2014,07,25,08,43,16.70
2014,07,25,08,44,16.70
2014,07,25,08,45,16.80
2014,07,25,08,46,16.80
2014,07,25,08,47,16.80
2014,07,25,08,48,16.70
2014,07,25,08,49,16.70
2014,07,25,08,50,16.60
2014,07,25,08,51,16.60
2014,07,25,08,52,16.50
2014,07,25,08,53,16.30
2014,07,25,08,54,16.20
2014,07,25,08,55,16.10
2014,07,25,08,56,16.00
2014,07,25,08,57,15.90
2014,07,25,08,58,15.90
2014,07,25,08,59,15.80
2014,07,25,09,00,15.80
2014,07,25,09,01,15.80
2014,07,25,09,02,15.80
2014,07,25,09,03,15.80
2014,07,25,09,04,15.80
2014,07,25,09,05,15.80
2014,07,25,09,06,15.90
2014,07,25,09,07,15.90
2014,07,25,09,08,16.00
2014,07,25,09,09,16.00
2014,07,25,09,10,16.10
2014,07,25,09,11,16.10
2014,07,25,09,12,16.20
2014,07,25,09,13,16.20
2014,07,25,09,14,16.30
2014,07,25,09,15,16.30
2014,07,25,09,16,16.20
2014,07,25,09,17,16.20
2014,07,25,09,18,16.30
2014,07,25,09,19,16.30
2014,07,25,09,20,16.30
2014,07,25,09,21,16.40
2014,07,25,09,22,16.40
2014,07,25,09,23,16.40
2014,07,25,09,24,16.50
2014,07,25,09,25,16.50
2014,07,25,09,26,16.60
2014,07,25,09,27,16.70
2014,07,25,09,28,16.70
2014,07,25,09,29,16.80
2014,07,25,09,30,16.80
2014,07,25,09,31,16.80
2014,07,25,09,32,16.90
2014,07,25,09,33,16.90
2014,07,25,09,34,17.00
2014,07,25,09,35,17.00
2014,07,25,09,36,17.00
2014,07,25,09,37,17.00
2014,07,25,09,38,17.00
2014,07,25,09,39,17.00
2014,07,25,09,40,17.00
2014,07,25,09,41,17.10
2014,07,25,09,42,17.10
2014,07,25,09,43,17.10
2014,07,25,09,44,17.10
2014,07,25,09,45,17.00
2014,07,25,09,46,17.10
2014,07,25,09,47,17.10
2014,07,25,09,48,17.10
2014,07,25,09,49,17.10
2014,07,25,09,50,17.20
2014,07,25,09,51,17.20
2014,07,25,09,52,17.20
2014,07,25,09,53,17.30
2014,07,25,09,54,17.30
2014,07,25,09,55,17.30
2014,07,25,09,56,17.30
2014,07,25,09,57,17.30
2014,07,25,09,58,17.40
2014,07,25,09,59,17.40
2014,07,25,10,00,17.40
2014,07,25,10,01,17.50
2014,07,25,10,02,17.50
2014,07,25,10,03,17.50
2014,07,25,10,04,17.50
2014,07,25,10,05,17.60
2014,07,25,10,06,17.60
2014,07,25,10,07,17.60
2014,07,25,10,08,17.60
2014,07,25,10,09,17.70
2014,07,25,10,10,17.70
2014,07,25,10,11,17.70
2014,07,25,10,12,17.80
2014,07,25,10,13,17.80
2014,07,25,10,14,17.90
2014,07,25,10,15,18.00
2014,07,25,10,16,18.00
2014,07,25,10,17,18.00
2014,07,25,10,18,18.10
2014,07,25,10,19,18.00
2014,07,25,10,20,18.00
2014,07,25,10,21,17.90
2014,07,25,10,22,17.90
2014,07,25,10,23,17.90
2014,07,25,10,24,18.00
2014,07,25,10,25,18.00
2014,07,25,10,26,18.10
2014,07,25,10,27,18.20
2014,07,25,10,28,18.20
2014,07,25,10,29,18.20
2014,07,25,10,30,18.30
2014,07,25,10,31,18.30
2014,07,25,10,32,18.40
2014,07,25,10,33,18.40
2014,07,25,10,34,18.40
2014,07,25,10,35,18.40
2014,07,25,10,36,18.40
2014,07,25,10,37,18.40
2014,07,25,10,38,18.40
2014,07,25,10,39,18.40
2014,07,25,10,40,18.40
2014,07,25,10,41,18.40
2014,07,25,10,42,18.40
2014,07,25,10,43,18.40
2014,07,25,10,44,18.40
2014,07,25,10,45,18.40
2014,07,25,10,46,18.40
2014,07,25,10,47,18.40
2014,07,25,10,48,18.50
2014,07,25,10,49,18.50
2014,07,25,10,50,18.50
2014,07,25,10,51,18.60
2014,07,25,10,52,18.60
2014,07,25,10,53,18.60
2014,07,25,10,54,18.60
2014,07,25,10,55,18.70
2014,07,25,10,56,18.70
2014,07,25,10,57,18.70
2014,07,25,10,58,18.70
2014,07,25,10,59,18.80
2014,07,25,11,00,18.90
2014,07,25,11,01,18.90
2014,07,25,11,02,18.90
2014,07,25,11,03,18.90
2014,07,25,11,04,18.80
2014,07,25,11,05,18.80
2014,07,25,11,06,18.90
2014,07,25,11,07,19.00
2014,07,25,11,08,19.10
2014,07,25,11,09,19.00
2014,07,25,11,10,18.90
2014,07,25,11,11,18.80
2014,07,25,11,12,18.80
2014,07,25,11,13,18.80
2014,07,25,11,14,18.80
2014,07,25,11,15,18.80
2014,07,25,11,16,18.80
2014,07,25,11,17,18.80
2014,07,25,11,18,18.80
2014,07,25,11,19,18.90
2014,07,25,11,20,18.90
2014,07,25,11,21,18.80
2014,07,25,11,22,18.80
2014,07,25,11,23,18.80
2014,07,25,11,24,18.80
2014,07,25,11,25,18.80
2014,07,25,11,26,18.80
2014,07,25,11,27,18.80
2014,07,25,11,28,18.80
2014,07,25,11,29,18.80
2014,07,25,11,30,18.80
2014,07,25,11,31,18.80
2014,07,25,11,32,18.80
2014,07,25,11,33,18.80
2014,07,25,11,34,18.80
2014,07,25,11,35,18.80
2014,07,25,11,36,18.80
2014,07,25,11,37,18.90
2014,07,25,11,38,18.90
2014,07,25,11,39,18.90
2014,07,25,11,40,19.00
2014,07,25,11,41,19.00
2014,07,25,11,42,19.10
2014,07,25,11,43,19.10
2014,07,25,11,44,19.10
2014,07,25,11,45,19.10
2014,07,25,11,46,19.20
2014,07,25,11,47,19.20
2014,07,25,11,48,19.20
2014,07,25,11,49,19.20
2014,07,25,11,50,19.20
2014,07,25,11,51,19.20
2014,07,25,11,52,19.20
2014,07,25,11,53,19.20
2014,07,25,11,54,19.20
2014,07,25,11,55,19.20
2014,07,25,11,56,19.20
2014,07,25,11,57,19.30
2014,07,25,11,58,19.30
2014,07,25,11,59,19.30
2014,07,25,12,00,19.40
2014,07,25,12,01,19.40
2014,07,25,12,02,19.40
2014,07,25,12,03,19.40
2014,07,25,12,04,19.40
2014,07,25,12,05,19.40
2014,07,25,12,06,19.40
2014,07,25,12,07,19.40
2014,07,25,12,08,19.40
2014,07,25,12,09,19.30
2014,07,25,12,10,19.20
2014,07,25,12,11,19.10
2014,07,25,12,12,19.00
2014,07,25,12,13,19.00
2014,07,25,12,14,18.90
2014,07,25,12,15,18.90
2014,07,25,12,16,19.00
2014,07,25,12,17,19.00
2014,07,25,12,18,19.10
2014,07,25,12,19,19.10
2014,07,25,12,20,19.10
2014,07,25,12,21,19.20
2014,07,25,12,22,19.10
2014,07,25,12,23,19.00
2014,07,25,12,24,19.00
2014,07,25,12,25,19.00
2014,07,25,12,26,19.00
2014,07,25,12,27,19.00
2014,07,25,12,28,19.10
2014,07,25,12,29,19.00
2014,07,25,12,30,19.00
2014,07,25,12,31,19.10
2014,07,25,12,32,19.10
2014,07,25,12,33,19.10
2014,07,25,12,34,19.00
2014,07,25,12,35,19.00
2014,07,25,12,36,19.10
2014,07,25,12,37,19.10
2014,07,25,12,38,19.10
2014,07,25,12,39,19.10
2014,07,25,12,40,19.10
2014,07,25,12,41,19.10
2014,07,25,12,42,19.20
2014,07,25,12,43,19.40
2014,07,25,12,44,19.40
2014,07,25,12,45,19.40
2014,07,25,12,46,19.30
2014,07,25,12,47,19.20
2014,07,25,12,48,19.20
2014,07,25,12,49,19.20
2014,07,25,12,50,19.20
2014,07,25,12,51,19.10
2014,07,25,12,52,19.10
2014,07,25,12,53,19.10
2014,07,25,12,54,19.10
2014,07,25,12,55,19.10
2014,07,25,12,56,19.10
2014,07,25,12,57,19.10
2014,07,25,12,58,19.10
2014,07,25,12,59,19.10
2014,07,25,13,00,19.00
2014,07,25,13,01,19.10
2014,07,25,13,02,19.10
2014,07,25,13,03,19.10
2014,07,25,13,04,19.00
2014,07,25,13,05,19.00
2014,07,25,13,06,19.00
2014,07,25,13,07,19.00
2014,07,25,13,08,19.00
2014,07,25,13,09,18.90
2014,07,25,13,10,18.90
2014,07,25,13,11,18.90
2014,07,25,13,12,18.90
2014,07,25,13,13,18.90
2014,07,25,13,14,18.80
2014,07,25,13,15,18.80
2014,07,25,13,16,18.90
2014,07,25,13,17,19.00
2014,07,25,13,18,19.10
2014,07,25,13,19,19.20
2014,07,25,13,20,19.20
2014,07,25,13,21,19.30
2014,07,25,13,22,19.30
2014,07,25,13,23,19.30
2014,07,25,13,24,19.30
2014,07,25,13,25,19.30
2014,07,25,13,26,19.30
2014,07,25,13,27,19.30
2014,07,25,13,28,19.30
2014,07,25,13,29,19.20
2014,07,25,13,30,19.20
2014,07,25,13,31,19.10
2014,07,25,13,32,19.20
2014,07,25,13,33,19.20
2014,07,25,13,34,19.20
2014,07,25,13,35,19.20
2014,07,25,13,36,19.20
2014,07,25,13,37,19.30
2014,07,25,13,38,19.30
2014,07,25,13,39,19.50
2014,07,25,13,40,19.60
2014,07,25,13,41,19.60
2014,07,25,13,42,19.70
2014,07,25,13,43,19.70
2014,07,25,13,44,19.60
2014,07,25,13,45,19.60
2014,07,25,13,46,19.70
2014,07,25,13,47,19.70
2014,07,25,13,48,19.70
2014,07,25,13,49,19.70
2014,07,25,13,50,19.60
2014,07,25,13,51,19.60
2014,07,25,13,52,19.70
2014,07,25,13,53,19.70
2014,07,25,13,54,19.80
2014,07,25,13,55,19.90
2014,07,25,13,56,19.90
2014,07,25,13,57,19.90
2014,07,25,13,58,20.00
2014,07,25,13,59,20.00
2014,07,25,14,00,20.00
2014,07,25,14,01,20.00
2014,07,25,14,02,19.90
2014,07,25,14,03,19.90
2014,07,25,14,04,19.90
2014,07,25,14,05,19.80
2014,07,25,14,06,19.80
2014,07,25,14,07,19.70
2014,07,25,14,08,19.60
2014,07,25,14,09,19.60
2014,07,25,14,10,19.60
2014,07,25,14,11,19.60
2014,07,25,14,12,19.60
2014,07,25,14,13,19.60
2014,07,25,14,14,19.70
2014,07,25,14,15,19.80
2014,07,25,14,16,19.90
2014,07,25,14,17,19.90
2014,07,25,14,18,20.00
2014,07,25,14,19,20.00
2014,07,25,14,20,20.20
2014,07,25,14,21,20.30
2014,07,25,14,22,20.30
2014,07,25,14,23,20.40
2014,07,25,14,24,20.40
2014,07,25,14,25,20.40
2014,07,25,14,26,20.40
2014,07,25,14,27,20.40
2014,07,25,14,28,20.40
2014,07,25,14,29,20.40
2014,07,25,14,30,20.40
2014,07,25,14,31,20.40
2014,07,25,14,32,20.30
2014,07,25,14,33,20.30
2014,07,25,14,34,20.30
2014,07,25,14,35,20.30
2014,07,25,14,36,20.30
2014,07,25,14,37,20.30
2014,07,25,14,38,20.30
2014,07,25,14,39,20.30
2014,07,25,14,40,20.30
2014,07,25,14,41,20.30
2014,07,25,14,42,20.30
2014,07,25,14,43,20.30
2014,07,25,14,44,20.20
2014,07,25,14,45,20.10
2014,07,25,14,46,20.10
2014,07,25,14,47,20.10
2014,07,25,14,48,20.10
2014,07,25,14,49,20.20
2014,07,25,14,50,20.20
2014,07,25,14,51,20.30
2014,07,25,14,52,20.30
2014,07,25,14,53,20.40
2014,07,25,14,54,20.40
2014,07,25,14,55,20.40
2014,07,25,14,56,20.40
2014,07,25,14,57,20.30
2014,07,25,14,58,20.30
2014,07,25,14,59,20.30
2014,07,25,15,00,20.30
2014,07,25,15,01,20.40
2014,07,25,15,02,20.40
2014,07,25,15,03,20.50
2014,07,25,15,04,20.40
2014,07,25,15,05,20.40
2014,07,25,15,06,20.40
2014,07,25,15,07,20.40
2014,07,25,15,08,20.40
2014,07,25,15,09,20.40
2014,07,25,15,10,20.50
2014,07,25,15,11,20.40
2014,07,25,15,12,20.40
2014,07,25,15,13,20.40
2014,07,25,15,14,20.30
2014,07,25,15,15,20.30
2014,07,25,15,16,20.20
2014,07,25,15,17,20.20
2014,07,25,15,18,20.20
2014,07,25,15,19,20.20
2014,07,25,15,20,20.20
2014,07,25,15,21,20.20
2014,07,25,15,22,20.20
2014,07,25,15,23,20.30
2014,07,25,15,24,20.30
2014,07,25,15,25,20.30
2014,07,25,15,26,20.30
2014,07,25,15,27,20.30
2014,07,25,15,28,20.30
2014,07,25,15,29,20.30
2014,07,25,15,30,20.30
2014,07,25,15,31,20.30
2014,07,25,15,32,20.30
2014,07,25,15,33,20.40
2014,07,25,15,34,20.40
2014,07,25,15,35,20.30
2014,07,25,15,36,20.30
2014,07,25,15,37,20.30
2014,07,25,15,38,20.30
2014,07,25,15,39,20.40
2014,07,25,15,40,20.50
2014,07,25,15,41,20.50
2014,07,25,15,42,20.60
2014,07,25,15,43,20.60
2014,07,25,15,44,20.60
2014,07,25,15,45,20.60
2014,07,25,15,46,20.50
2014,07,25,15,47,20.50
2014,07,25,15,48,20.40
2014,07,25,15,49,20.50
2014,07,25,15,50,20.50
2014,07,25,15,51,20.50
2014,07,25,15,52,20.50
2014,07,25,15,53,20.50
2014,07,25,15,54,20.60
2014,07,25,15,55,20.60
2014,07,25,15,56,20.70
2014,07,25,15,57,20.80
2014,07,25,15,58,20.90
2014,07,25,15,59,20.90
2014,07,25,16,00,20.90
2014,07,25,16,01,20.90
2014,07,25,16,02,20.90
2014,07,25,16,03,21.00
2014,07,25,16,04,21.10
2014,07,25,16,05,21.10
2014,07,25,16,06,21.20
2014,07,25,16,07,21.20
2014,07,25,16,08,21.20
2014,07,25,16,09,21.10
2014,07,25,16,10,21.00
2014,07,25,16,11,20.90
2014,07,25,16,12,20.90
2014,07,25,16,13,20.90
2014,07,25,16,14,20.90
2014,07,25,16,15,20.90
2014,07,25,16,16,21.00
2014,07,25,16,17,21.10
2014,07,25,16,18,21.10
2014,07,25,16,19,21.10
2014,07,25,16,20,21.20
2014,07,25,16,21,21.20
2014,07,25,16,22,21.30
2014,07,25,16,23,21.30
2014,07,25,16,24,21.40
2014,07,25,16,25,21.40
2014,07,25,16,26,21.40
2014,07,25,16,27,21.40
2014,07,25,16,28,21.50
2014,07,25,16,29,21.50
2014,07,25,16,30,21.60
2014,07,25,16,31,21.50
2014,07,25,16,32,21.40
2014,07,25,16,33,21.40
2014,07,25,16,34,21.30
2014,07,25,16,35,21.30
2014,07,25,16,36,21.30
2014,07,25,16,37,21.20
2014,07,25,16,38,21.20
2014,07,25,16,39,21.20
2014,07,25,16,40,21.30
2014,07,25,16,41,21.40
2014,07,25,16,42,21.40
2014,07,25,16,43,21.40
2014,07,25,16,44,21.40
2014,07,25,16,45,21.30
2014,07,25,16,46,21.30
2014,07,25,16,47,21.20
2014,07,25,16,48,21.20
2014,07,25,16,49,21.20
2014,07,25,16,50,21.20
2014,07,25,16,51,21.30
2014,07,25,16,52,21.30
2014,07,25,16,53,21.40
2014,07,25,16,54,21.40
2014,07,25,16,55,21.50
2014,07,25,16,56,21.50
2014,07,25,16,57,21.50
2014,07,25,16,58,21.40
2014,07,25,16,59,21.30
2014,07,25,17,00,21.20
2014,07,25,17,01,21.20
2014,07,25,17,02,21.10
2014,07,25,17,03,21.10
2014,07,25,17,04,21.20
2014,07,25,17,05,21.20
2014,07,25,17,06,21.30
2014,07,25,17,07,21.30
2014,07,25,17,08,21.30
2014,07,25,17,09,21.20
2014,07,25,17,10,21.20
2014,07,25,17,11,21.20
2014,07,25,17,12,21.20
2014,07,25,17,13,21.30
2014,07,25,17,14,21.30
2014,07,25,17,15,21.40
2014,07,25,17,16,21.40
2014,07,25,17,17,21.40
2014,07,25,17,18,21.40
2014,07,25,17,19,21.40